DELTA 1 DEB, 7044

Orbit data source: Space-Track

DELTA 1 DEB, 7044 is space debris in SSO originally from a launch on Tue, 06 Nov 1973 UTC launched from the Air Force Western Test Range (AFWTR). Debris objects in space refer to the collection of defunct objects orbiting the Earth. Examples of debris include non-operational satellites, rocket bodies, and fragments generated from explosions, collisions, or faulty payload assembly.

Loading next visibility...
DELTA 1 DEB details
Identifier
7044, 1973-086AL
Orbit
SSO
Last TLE update23 hours ago
Origin
Flag of USGSFC (US)
ManufacturerUnknown
MissionSpacecraft
Bus & MotorUnknown
MassUnknown
Launch date (UTC)
1973-11-06 (51 years ago)
Launch vehicleUnknown
Launch site
Air Force Western Test Range (AFWTR)
Object type
Payload
Rocket body
Debris
Shape & HBRUnknown
Radar Cross Section0.210 m², Medium (>0.1 m² and < 1m²)

Expand to show TLE details & history

TLE from 23 hours ago
0 DELTA 1 DEB
1 07044U 73086AL  24360.49820872 -.00000015  00000-0  23359-3 0  9996
2 07044 102.5655 201.8010 0089067 157.8539 232.6875 12.44493321322251
Epoch: 2024-12-25T11:57Z
Definitive object data (Epoch: 2024-12-25T11:57:25.233Z)
Latitude28.9996°
Longitude-79.10757°
Altitude1,533.746 km
Speed7.082 km/s
True Right ascension12h 58m 57s
True Declination28° 52' 06"
Sunlit
Object was in daylight at TLE epoch
Visualization TLE readout
Latitude76.97721°
Longitude-177.49568°
Altitude1,467.538 km
Speed7.151 km/s
Apparent Right ascension00h 13m 10s
Apparent Declination38° 26' 43"
Sunlit
Object is in full shadow
Visualization observer readout
Local Sidereal Time10:48:26
Azimuth343.337° N
Elevation-9.274°
Doppler factor1
Orbital elements
Apogee altitude1,555.252 km
Perigee altitude1,415.179 km
Semi-major axis7,863.353 km
Eccentricity0.0089067
Inclination102.5655°
RAAN201.801°
Arg. of periapsis157.8539°
True anomaly231.88122°
Mean anomaly232.6875°
Eccentric anomaly232.28381°
Mean motion3.11266 °/min
BSTAR0.00023359
Orbital period115.66 mins
Loading maneuver chart data...
Loading historical data...
Loading historical data...
Loading historical data...
Loading historical data...
Loading historical data...
Loading historical data...
Loading historical data...

DELTA 1 DEB Visibility forecast

Observer location: undefined°, undefined

Span
Click to sort rows by Start time (UTC) header in descending order
Start Az.
Max El. time (UTC)
Max El. Az.
Max El.
End time (UTC)
End Az.
16 mins2024-12-26 12:58:05.649Z148.16° SSE2024-12-26 13:06:05.649Z82.277° E43.266°2024-12-26 13:14:05.649Z346.63° N
12 mins2024-12-26 14:55:05.649Z219.428° SW2024-12-26 15:00:05.649Z261.096° W23.339°2024-12-26 15:07:05.649Z316.868° NNW
9 mins2024-12-27 01:09:05.649Z59.525° ENE2024-12-27 01:13:05.649Z95.14° ESE20.154°2024-12-27 01:18:05.649Z136.877° SSE
15 mins2024-12-27 03:00:05.649Z14.529° NNE2024-12-27 03:07:05.649Z298.361° NW44.115°2024-12-27 03:15:05.649Z208.49° SW
7 mins2024-12-27 04:56:05.649Z338.521° N2024-12-27 04:59:05.649Z314.025° NW16.556°2024-12-27 05:03:05.649Z281.643° WNW
|